Time,TemperatureF,DewpointF,PressureIn,WindDirection,WindDirectionDegrees,WindSpeedMPH,WindSpeedGustMPH,Humidity,HourlyPrecipIn,Conditions,Clouds,dailyrainin,SolarRadiationWatts/m^2,SoftwareType,DateUTC
2013-07-18 00:02:00,74.1,71.9,30.19,SSE,152,0.0,0.0,93,0.00,RA,,0.00,0.0,WeatherDisplay:10.37,2013-07-18 05:02:00,
2013-07-18 00:07:00,73.9,71.7,30.20,SSE,152,0.0,0.0,93,0.00,RA,,0.00,0.0,WeatherDisplay:10.37,2013-07-18 05:07:00,
2013-07-18 00:12:00,73.9,71.7,30.20,SSE,152,0.0,0.0,93,0.00,CLR,,0.00,0.0,WeatherDisplay:10.37,2013-07-18 05:12:00,
2013-07-18 00:17:00,73.7,71.5,30.19,SSE,152,0.0,0.0,93,0.00,CLR,,0.00,0.0,WeatherDisplay:10.37,2013-07-18 05:17:00,
2013-07-18 00:22:00,73.6,71.4,30.19,SSE,152,0.0,0.0,93,0.00,CLR,,0.00,0.0,WeatherDisplay:10.37,2013-07-18 05:22:00,
2013-07-18 00:27:00,73.4,71.3,30.19,SSE,152,0.0,0.0,93,0.00,CLR,,0.00,0.0,WeatherDisplay:10.37,2013-07-18 05:27:00,
2013-07-18 00:32:00,73.4,71.3,30.19,SSE,152,0.0,0.0,93,0.00,CLR,,0.00,0.0,WeatherDisplay:10.37,2013-07-18 05:32:00,
2013-07-18 00:37:00,73.3,71.5,30.19,SSE,152,0.0,0.0,94,0.00,CLR,,0.00,0.0,WeatherDisplay:10.37,2013-07-18 05:37:00,
2013-07-18 00:42:00,73.3,71.5,30.19,SSE,152,0.0,0.0,94,0.00,CLR,,0.00,0.0,WeatherDisplay:10.37,2013-07-18 05:42:00,
2013-07-18 00:47:00,73.3,71.5,30.19,SSE,152,0.0,0.0,94,0.00,CLR,,0.00,0.0,WeatherDisplay:10.37,2013-07-18 05:47:00,
2013-07-18 00:52:00,73.2,71.4,30.19,SSE,152,0.0,0.0,94,0.00,CLR,,0.00,0.0,WeatherDisplay:10.37,2013-07-18 05:52:00,
2013-07-18 00:57:00,73.2,71.4,30.19,SSE,152,0.0,0.0,94,0.00,CLR,,0.00,0.0,WeatherDisplay:10.37,2013-07-18 05:57:00,
2013-07-18 01:02:00,73.1,71.3,30.19,SSE,152,0.0,0.0,94,0.00,CLR,,0.00,0.0,WeatherDisplay:10.37,2013-07-18 06:02:00,
2013-07-18 01:07:00,73.0,71.2,30.19,SSE,152,0.0,0.0,94,0.00,CLR,,0.00,0.0,WeatherDisplay:10.37,2013-07-18 06:07:00,
2013-07-18 01:12:00,72.9,71.1,30.19,SSE,152,0.0,0.0,94,0.00,CLR,,0.00,0.0,WeatherDisplay:10.37,2013-07-18 06:12:00,
2013-07-18 01:17:00,72.8,71.0,30.19,SSE,152,0.0,0.0,94,0.00,CLR,,0.00,0.0,WeatherDisplay:10.37,2013-07-18 06:17:00,
2013-07-18 01:22:00,72.9,71.1,30.19,SSE,152,0.0,0.0,94,0.00,CLR,,0.00,0.0,WeatherDisplay:10.37,2013-07-18 06:22:00,
2013-07-18 01:27:00,72.7,70.9,30.19,SSE,152,0.0,0.0,94,0.00,CLR,,0.00,0.0,WeatherDisplay:10.37,2013-07-18 06:27:00,
2013-07-18 01:32:00,72.6,70.8,30.19,SSE,152,0.0,0.0,94,0.00,CLR,,0.00,0.0,WeatherDisplay:10.37,2013-07-18 06:32:00,
2013-07-18 01:37:00,72.5,71.0,30.19,SSE,152,0.0,0.0,95,0.00,CLR,,0.00,0.0,WeatherDisplay:10.37,2013-07-18 06:37:00,
2013-07-18 01:42:00,72.4,70.9,30.19,SSE,152,0.0,0.0,95,0.00,CLR,,0.00,0.0,WeatherDisplay:10.37,2013-07-18 06:42:00,
2013-07-18 01:47:00,72.3,70.8,30.19,SSE,152,0.0,0.0,95,0.00,CLR,,0.00,0.0,WeatherDisplay:10.37,2013-07-18 06:47:00,
2013-07-18 01:52:00,72.4,70.9,30.19,SSE,152,0.0,0.0,95,0.00,CLR,,0.00,0.0,WeatherDisplay:10.37,2013-07-18 06:52:00,
2013-07-18 01:57:00,72.3,70.8,30.19,SSE,152,0.0,0.0,95,0.00,CLR,,0.00,0.0,WeatherDisplay:10.37,2013-07-18 06:57:00,
2013-07-18 02:02:00,72.3,70.8,30.19,SSE,152,0.0,0.0,95,0.00,CLR,,0.00,0.0,WeatherDisplay:10.37,2013-07-18 07:02:00,
2013-07-18 02:07:00,72.2,70.7,30.19,SSE,152,0.0,0.0,95,0.00,CLR,,0.00,0.0,WeatherDisplay:10.37,2013-07-18 07:07:00,
2013-07-18 02:12:00,72.1,70.6,30.19,SSE,152,0.0,0.0,95,0.00,CLR,,0.00,0.0,WeatherDisplay:10.37,2013-07-18 07:12:00,
2013-07-18 02:17:00,72.0,70.5,30.19,SSE,152,0.0,0.0,95,0.00,CLR,,0.00,0.0,WeatherDisplay:10.37,2013-07-18 07:17:00,
2013-07-18 02:22:00,71.9,70.4,30.19,SSE,152,0.0,0.0,95,0.00,CLR,,0.00,0.0,WeatherDisplay:10.37,2013-07-18 07:22:00,
2013-07-18 02:27:00,72.1,70.6,30.19,SSE,152,0.0,0.0,95,0.00,CLR,,0.00,0.0,WeatherDisplay:10.37,2013-07-18 07:27:00,
2013-07-18 02:32:00,72.1,70.6,30.19,SSE,152,0.0,0.0,95,0.00,CLR,,0.00,0.0,WeatherDisplay:10.37,2013-07-18 07:32:00,
2013-07-18 02:37:00,71.9,70.4,30.19,SSE,152,0.0,0.0,95,0.00,CLR,,0.00,0.0,WeatherDisplay:10.37,2013-07-18 07:37:00,
2013-07-18 02:42:00,71.9,70.4,30.19,SSE,152,0.0,0.0,95,0.00,CLR,,0.00,0.0,WeatherDisplay:10.37,2013-07-18 07:42:00,
2013-07-18 02:47:00,71.8,70.3,30.19,SSE,152,0.0,0.0,95,0.00,CLR,,0.00,0.0,WeatherDisplay:10.37,2013-07-18 07:47:00,
2013-07-18 02:52:00,71.6,70.1,30.19,SSE,152,0.0,0.0,95,0.00,CLR,,0.00,0.0,WeatherDisplay:10.37,2013-07-18 07:52:00,
2013-07-18 02:57:00,71.6,70.1,30.19,SSE,152,0.0,0.0,95,0.00,CLR,,0.00,0.0,WeatherDisplay:10.37,2013-07-18 07:57:00,
2013-07-18 03:02:00,71.5,70.0,30.19,SSE,152,0.0,0.0,95,0.00,CLR,,0.00,0.0,WeatherDisplay:10.37,2013-07-18 08:02:00,
2013-07-18 03:07:00,71.5,70.0,30.18,SSE,152,0.0,0.0,95,0.00,CLR,,0.00,0.0,WeatherDisplay:10.37,2013-07-18 08:07:00,
2013-07-18 03:12:00,71.5,70.0,30.18,SSE,152,0.0,0.0,95,0.00,CLR,,0.00,0.0,WeatherDisplay:10.37,2013-07-18 08:12:00,
2013-07-18 03:17:00,71.4,69.9,30.18,SSE,152,0.0,0.0,95,0.00,CLR,,0.00,0.0,WeatherDisplay:10.37,2013-07-18 08:17:00,
2013-07-18 03:22:00,71.4,69.9,30.18,SSE,152,0.0,0.0,95,0.00,CLR,,0.00,0.0,WeatherDisplay:10.37,2013-07-18 08:22:00,
2013-07-18 03:27:00,71.3,69.8,30.18,SSE,152,0.0,0.0,95,0.00,CLR,,0.00,0.0,WeatherDisplay:10.37,2013-07-18 08:27:00,
2013-07-18 03:32:00,70.9,69.4,30.18,SSE,152,0.0,0.0,95,0.00,CLR,,0.00,0.0,WeatherDisplay:10.37,2013-07-18 08:32:00,
2013-07-18 03:37:00,70.9,69.4,30.18,SSE,152,0.0,0.0,95,0.00,CLR,,0.00,0.0,WeatherDisplay:10.37,2013-07-18 08:37:00,
2013-07-18 03:42:00,70.8,69.3,30.18,SSE,152,0.0,0.0,95,0.00,CLR,,0.00,0.0,WeatherDisplay:10.37,2013-07-18 08:42:00,
2013-07-18 03:47:00,70.9,69.4,30.18,SSE,152,0.0,0.0,95,0.00,CLR,,0.00,0.0,WeatherDisplay:10.37,2013-07-18 08:47:00,
2013-07-18 03:52:00,70.9,69.4,30.18,SSE,152,0.0,0.0,95,0.00,CLR,,0.00,0.0,WeatherDisplay:10.37,2013-07-18 08:52:00,
2013-07-18 03:57:00,71.0,69.5,30.18,SSE,152,0.0,0.0,95,0.00,CLR,,0.00,0.0,WeatherDisplay:10.37,2013-07-18 08:57:00,
2013-07-18 04:02:00,70.9,69.4,30.18,SSE,152,0.0,0.0,95,0.00,CLR,,0.00,0.0,WeatherDisplay:10.37,2013-07-18 09:02:00,
2013-07-18 04:07:00,70.7,69.2,30.18,SSE,152,0.0,0.0,95,0.00,CLR,,0.00,0.0,WeatherDisplay:10.37,2013-07-18 09:07:00,
2013-07-18 04:12:00,70.6,69.1,30.18,SSE,152,0.0,0.0,95,0.00,CLR,,0.00,0.0,WeatherDisplay:10.37,2013-07-18 09:12:00,
2013-07-18 04:17:00,70.5,69.0,30.18,SSE,152,0.0,0.0,95,0.00,CLR,,0.00,0.0,WeatherDisplay:10.37,2013-07-18 09:17:00,
2013-07-18 04:22:00,70.5,69.0,30.18,SSE,152,0.0,0.0,95,0.00,CLR,,0.00,0.0,WeatherDisplay:10.37,2013-07-18 09:22:00,
2013-07-18 04:27:00,70.6,69.1,30.18,SSE,152,0.0,0.0,95,0.00,CLR,,0.00,0.0,WeatherDisplay:10.37,2013-07-18 09:27:00,
2013-07-18 04:32:00,70.5,69.0,30.18,SSE,152,0.0,0.0,95,0.00,CLR,,0.00,0.0,WeatherDisplay:10.37,2013-07-18 09:32:00,
2013-07-18 04:37:00,70.7,69.2,30.18,SSE,152,0.0,0.0,95,0.00,CLR,,0.00,0.0,WeatherDisplay:10.37,2013-07-18 09:37:00,
2013-07-18 04:42:00,70.6,69.1,30.18,SSE,152,0.0,0.0,95,0.00,CLR,,0.00,0.0,WeatherDisplay:10.37,2013-07-18 09:42:00,
2013-07-18 04:47:00,70.5,69.0,30.18,SSE,152,0.0,0.0,95,0.00,CLR,,0.00,0.0,WeatherDisplay:10.37,2013-07-18 09:47:00,
2013-07-18 04:52:00,70.3,69.1,30.18,SSE,152,0.0,0.0,96,0.00,CLR,,0.00,0.0,WeatherDisplay:10.37,2013-07-18 09:52:00,
2013-07-18 04:57:00,70.1,68.6,30.18,SSE,152,0.0,0.0,95,0.00,CLR,,0.00,0.0,WeatherDisplay:10.37,2013-07-18 09:57:00,
2013-07-18 05:02:00,70.1,68.6,30.18,SSE,152,0.0,0.0,95,0.00,CLR,,0.00,0.0,WeatherDisplay:10.37,2013-07-18 10:02:00,
2013-07-18 05:07:00,70.2,68.7,30.18,SSE,152,0.0,0.0,95,0.00,CLR,,0.00,0.0,WeatherDisplay:10.37,2013-07-18 10:07:00,
2013-07-18 05:12:00,70.1,68.6,30.18,SSE,152,0.0,0.0,95,0.00,CLR,,0.00,0.0,WeatherDisplay:10.37,2013-07-18 10:12:00,
2013-07-18 05:17:00,70.1,68.6,30.18,SSE,152,0.0,0.0,95,0.00,CLR,,0.00,0.0,WeatherDisplay:10.37,2013-07-18 10:17:00,
2013-07-18 05:22:00,70.1,68.6,30.18,SSE,152,0.0,0.0,95,0.00,CLR,,0.00,0.0,WeatherDisplay:10.37,2013-07-18 10:22:00,
2013-07-18 05:27:00,70.0,68.5,30.18,SSE,152,0.0,0.0,95,0.00,CLR,,0.00,0.0,WeatherDisplay:10.37,2013-07-18 10:27:00,
2013-07-18 05:32:00,70.0,68.5,30.18,SSE,152,0.0,0.0,95,0.00,SCT,,0.00,0.0,WeatherDisplay:10.37,2013-07-18 10:32:00,
2013-07-18 05:37:00,69.9,68.7,30.18,SSE,152,0.0,0.0,96,0.00,SCT,,0.00,0.0,WeatherDisplay:10.37,2013-07-18 10:37:00,
2013-07-18 05:42:00,69.9,68.7,30.18,SSE,152,0.0,0.0,96,0.00,SCT,,0.00,0.0,WeatherDisplay:10.37,2013-07-18 10:42:00,
2013-07-18 05:47:00,69.7,68.5,30.18,SSE,152,0.0,0.0,96,0.00,CLR,,0.00,0.0,WeatherDisplay:10.37,2013-07-18 10:47:00,
2013-07-18 05:52:00,69.8,68.6,30.18,SSE,152,0.0,0.0,96,0.00,CLR,,0.00,0.0,WeatherDisplay:10.37,2013-07-18 10:52:00,
2013-07-18 05:57:00,69.8,68.6,30.18,SSE,152,0.0,0.0,96,0.00,CLR,,0.00,0.0,WeatherDisplay:10.37,2013-07-18 10:57:00,
2013-07-18 06:02:00,69.5,68.0,30.19,SSE,152,0.0,0.0,95,0.00,CLR,,0.00,0.0,WeatherDisplay:10.37,2013-07-18 11:02:00,
2013-07-18 06:07:00,69.5,68.3,30.19,SSE,152,0.0,0.0,96,0.00,CLR,,0.00,0.0,WeatherDisplay:10.37,2013-07-18 11:07:00,
2013-07-18 06:12:00,69.7,68.5,30.19,SSE,152,0.0,0.0,96,0.00,CLR,,0.00,0.0,WeatherDisplay:10.37,2013-07-18 11:12:00,
2013-07-18 06:17:00,69.8,68.6,30.19,SSE,152,0.0,0.0,96,0.00,CLR,,0.00,0.0,WeatherDisplay:10.37,2013-07-18 11:17:00,
2013-07-18 06:22:00,69.9,68.7,30.19,SSE,152,0.0,0.0,96,0.00,CLR,,0.00,0.0,WeatherDisplay:10.37,2013-07-18 11:22:00,
2013-07-18 06:27:00,70.3,69.1,30.19,SSE,152,0.0,0.0,96,0.00,CLR,,0.00,0.0,WeatherDisplay:10.37,2013-07-18 11:27:00,
2013-07-18 06:32:00,70.4,69.2,30.19,SSE,152,0.0,0.0,96,0.00,CLR,,0.00,0.0,WeatherDisplay:10.37,2013-07-18 11:32:00,
2013-07-18 06:37:00,70.3,69.1,30.19,SSE,152,0.0,0.0,96,0.00,CLR,,0.00,5.5,WeatherDisplay:10.37,2013-07-18 11:37:00,
2013-07-18 06:42:00,70.0,68.8,30.19,SSE,152,0.0,0.0,96,0.00,CLR,,0.00,9.9,WeatherDisplay:10.37,2013-07-18 11:42:00,
2013-07-18 06:47:00,70.0,68.8,30.19,SSE,152,0.0,0.0,96,0.00,CLR,,0.00,13.2,WeatherDisplay:10.37,2013-07-18 11:47:00,
2013-07-18 06:52:00,70.0,68.8,30.19,SSE,152,0.0,0.0,96,0.00,CLR,,0.00,15.4,WeatherDisplay:10.37,2013-07-18 11:52:00,
2013-07-18 06:57:00,70.2,69.0,30.19,SSE,153,0.0,0.0,96,0.00,CLR,,0.00,17.6,WeatherDisplay:10.37,2013-07-18 11:57:00,
2013-07-18 07:02:00,70.3,69.1,30.19,SSE,153,0.0,0.0,96,0.00,CLR,,0.00,19.8,WeatherDisplay:10.37,2013-07-18 12:02:00,
2013-07-18 07:07:00,70.6,69.4,30.19,SSE,153,0.0,0.0,96,0.00,CLR,,0.00,19.8,WeatherDisplay:10.37,2013-07-18 12:07:00,
2013-07-18 07:12:00,70.7,69.5,30.19,SSE,153,0.0,0.0,96,0.00,CLR,,0.00,20.9,WeatherDisplay:10.37,2013-07-18 12:12:00,
2013-07-18 07:17:00,71.0,69.5,30.20,SSE,153,0.0,0.0,95,0.00,CLR,,0.00,25.3,WeatherDisplay:10.37,2013-07-18 12:17:00,
2013-07-18 07:22:00,71.2,69.7,30.20,SSE,153,0.0,0.0,95,0.00,CLR,,0.00,27.5,WeatherDisplay:10.37,2013-07-18 12:22:00,
2013-07-18 07:27:00,71.4,69.9,30.20,SSE,153,0.0,0.0,95,0.00,CLR,,0.00,35.2,WeatherDisplay:10.37,2013-07-18 12:27:00,
2013-07-18 07:32:00,71.8,70.3,30.20,SSE,153,0.0,0.0,95,0.00,CLR,,0.00,36.3,WeatherDisplay:10.37,2013-07-18 12:32:00,
2013-07-18 07:37:00,72.1,70.6,30.20,SSE,153,0.0,0.0,95,0.00,CLR,,0.00,36.3,WeatherDisplay:10.37,2013-07-18 12:37:00,
2013-07-18 07:42:00,72.6,71.1,30.20,SSE,153,0.0,0.0,95,0.00,CLR,,0.00,66.0,WeatherDisplay:10.37,2013-07-18 12:42:00,
2013-07-18 07:47:00,73.0,71.5,30.20,SSE,153,0.0,0.0,95,0.00,CLR,,0.00,59.4,WeatherDisplay:10.37,2013-07-18 12:47:00,
2013-07-18 07:52:00,73.4,71.9,30.20,SSE,153,0.0,0.0,95,0.00,CLR,,0.00,44.0,WeatherDisplay:10.37,2013-07-18 12:52:00,
2013-07-18 07:57:00,73.8,72.3,30.20,SSE,152,0.0,0.0,95,0.00,CLR,,0.00,100.1,WeatherDisplay:10.37,2013-07-18 12:57:00,
2013-07-18 08:02:00,74.1,72.6,30.20,SSE,147,0.0,0.0,95,0.00,CLR,,0.00,69.3,WeatherDisplay:10.37,2013-07-18 13:02:00,
2013-07-18 08:07:00,74.7,73.2,30.20,SSE,147,0.0,0.0,95,0.00,CLR,,0.00,51.7,WeatherDisplay:10.37,2013-07-18 13:07:00,
2013-07-18 08:12:00,75.2,73.7,30.20,SSE,147,0.0,0.0,95,0.00,CLR,,0.00,51.7,WeatherDisplay:10.37,2013-07-18 13:12:00,
2013-07-18 08:17:00,75.4,73.6,30.20,SSE,147,0.0,0.0,94,0.00,CLR,,0.00,58.3,WeatherDisplay:10.37,2013-07-18 13:17:00,
2013-07-18 08:22:00,75.8,73.6,30.20,SSE,147,0.0,0.0,93,0.00,CLR,,0.00,102.3,WeatherDisplay:10.37,2013-07-18 13:22:00,
2013-07-18 08:27:00,76.1,73.6,30.20,SSE,147,0.0,0.0,92,0.00,CLR,,0.00,143.0,WeatherDisplay:10.37,2013-07-18 13:27:00,
2013-07-18 08:32:00,76.7,73.5,30.21,SSE,147,0.0,0.0,90,0.00,CLR,,0.00,189.2,WeatherDisplay:10.37,2013-07-18 13:32:00,
2013-07-18 08:37:00,77.7,73.9,30.21,SE,146,0.0,0.0,88,0.00,CLR,,0.00,249.7,WeatherDisplay:10.37,2013-07-18 13:37:00,
2013-07-18 08:42:00,78.2,73.7,30.21,SE,135,0.0,0.0,86,0.00,CLR,,0.00,191.4,WeatherDisplay:10.37,2013-07-18 13:42:00,
2013-07-18 08:47:00,78.8,73.9,30.21,SE,135,0.0,0.0,85,0.00,CLR,,0.00,339.9,WeatherDisplay:10.37,2013-07-18 13:47:00,
2013-07-18 08:52:00,79.4,73.8,30.21,SE,135,0.0,0.0,83,0.00,CLR,,0.00,363.0,WeatherDisplay:10.37,2013-07-18 13:52:00,
2013-07-18 08:57:00,79.6,73.6,30.21,SE,135,0.0,0.0,82,0.00,CLR,,0.00,392.7,WeatherDisplay:10.37,2013-07-18 13:57:00,
2013-07-18 09:02:00,79.7,73.0,30.21,SE,135,0.0,0.0,80,0.00,CLR,,0.00,413.6,WeatherDisplay:10.37,2013-07-18 14:02:00,
2013-07-18 09:07:00,80.3,72.8,30.20,SE,135,0.0,0.0,78,0.00,CLR,,0.00,425.7,WeatherDisplay:10.37,2013-07-18 14:07:00,
2013-07-18 09:12:00,80.7,72.4,30.20,SE,135,0.0,0.0,76,0.00,CLR,,0.00,436.7,WeatherDisplay:10.37,2013-07-18 14:12:00,
2013-07-18 09:17:00,81.0,71.9,30.20,SE,135,0.0,0.0,74,0.00,CLR,,0.00,456.5,WeatherDisplay:10.37,2013-07-18 14:17:00,
2013-07-18 09:22:00,81.3,71.8,30.20,SE,135,0.0,0.0,73,0.00,CLR,,0.00,479.6,WeatherDisplay:10.37,2013-07-18 14:22:00,
2013-07-18 09:27:00,81.5,72.8,30.20,SE,135,0.0,0.0,75,0.00,CLR,,0.00,500.5,WeatherDisplay:10.37,2013-07-18 14:27:00,
2013-07-18 09:32:00,82.0,72.5,30.20,SE,132,0.0,0.0,73,0.00,CLR,,0.00,522.5,WeatherDisplay:10.37,2013-07-18 14:32:00,
2013-07-18 09:37:00,82.2,72.3,30.20,SE,132,0.0,0.0,72,0.00,CLR,,0.00,539.0,WeatherDisplay:10.37,2013-07-18 14:37:00,
2013-07-18 09:42:00,82.3,72.0,30.20,SE,132,0.0,0.0,71,0.00,CLR,,0.00,558.8,WeatherDisplay:10.37,2013-07-18 14:42:00,
2013-07-18 09:47:00,82.5,71.7,30.20,SE,133,0.0,0.0,70,0.00,CLR,,0.00,578.6,WeatherDisplay:10.37,2013-07-18 14:47:00,
2013-07-18 09:52:00,82.7,72.7,30.20,WSW,245,3.4,5.8,72,0.00,CLR,,0.00,597.3,WeatherDisplay:10.37,2013-07-18 14:52:00,
2013-07-18 09:57:00,82.9,72.9,30.20,WSW,245,1.5,2.3,72,0.00,CLR,,0.00,609.4,WeatherDisplay:10.37,2013-07-18 14:57:00,
2013-07-18 10:02:00,83.0,71.8,30.20,WSW,245,3.2,4.6,69,0.00,CLR,,0.00,634.7,WeatherDisplay:10.37,2013-07-18 15:02:00,
2013-07-18 10:07:00,83.0,71.8,30.20,WSW,245,2.1,3.5,69,0.00,CLR,,0.00,651.2,WeatherDisplay:10.37,2013-07-18 15:07:00,
2013-07-18 10:12:00,83.3,72.9,30.20,WSW,249,3.3,4.6,71,0.00,CLR,,0.00,642.4,WeatherDisplay:10.37,2013-07-18 15:12:00,
2013-07-18 10:17:00,83.4,72.2,30.20,WSW,249,0.0,1.0,69,0.00,CLR,,0.00,610.5,WeatherDisplay:10.37,2013-07-18 15:17:00,
2013-07-18 10:22:00,83.8,73.8,30.19,WSW,249,0.4,1.2,72,0.00,CLR,,0.00,691.9,WeatherDisplay:10.37,2013-07-18 15:22:00,
2013-07-18 10:27:00,84.0,72.7,30.19,WSW,247,2.5,3.5,69,0.00,CLR,,0.00,698.5,WeatherDisplay:10.37,2013-07-18 15:27:00,
2013-07-18 10:32:00,83.8,72.5,30.19,WSW,247,0.0,0.0,69,0.00,CLR,,0.00,715.0,WeatherDisplay:10.37,2013-07-18 15:32:00,
2013-07-18 10:37:00,84.2,72.9,30.19,WSW,245,1.5,3.5,69,0.00,CLR,,0.00,748.0,WeatherDisplay:10.37,2013-07-18 15:37:00,
2013-07-18 10:42:00,83.8,72.5,30.19,SW,232,0.0,0.0,69,0.00,CLR,,0.00,757.9,WeatherDisplay:10.37,2013-07-18 15:42:00,
2013-07-18 10:47:00,84.0,72.3,30.19,SW,232,0.0,0.0,68,0.00,CLR,,0.00,775.5,WeatherDisplay:10.37,2013-07-18 15:47:00,
2013-07-18 10:52:00,84.8,74.8,30.19,SW,232,0.0,0.0,72,0.00,CLR,,0.00,806.3,WeatherDisplay:10.37,2013-07-18 15:52:00,
2013-07-18 10:57:00,85.5,73.3,30.19,SW,227,2.1,4.0,67,0.00,CLR,,0.00,839.3,WeatherDisplay:10.37,2013-07-18 15:57:00,
2013-07-18 11:02:00,86.1,74.3,30.19,SW,228,2.6,3.5,68,0.00,CLR,,0.00,885.5,WeatherDisplay:10.37,2013-07-18 16:02:00,
2013-07-18 11:07:00,86.0,73.3,30.19,SW,219,2.2,3.5,66,0.00,CLR,,0.00,808.5,WeatherDisplay:10.37,2013-07-18 16:07:00,
2013-07-18 11:12:00,86.0,74.2,30.18,SW,216,2.8,3.5,68,0.00,CLR,,0.00,882.2,WeatherDisplay:10.37,2013-07-18 16:12:00,
2013-07-18 11:17:00,85.7,73.0,30.19,SSW,210,1.2,3.5,66,0.00,CLR,,0.00,173.8,WeatherDisplay:10.37,2013-07-18 16:17:00,
2013-07-18 11:22:00,85.4,72.7,30.19,SSW,208,3.4,5.8,66,0.00,CLR,,0.00,249.7,WeatherDisplay:10.37,2013-07-18 16:22:00,
2013-07-18 11:27:00,85.8,73.6,30.18,SW,214,7.0,9.0,67,0.00,CLR,,0.00,984.5,WeatherDisplay:10.37,2013-07-18 16:27:00,
2013-07-18 11:32:00,85.8,73.1,30.18,SSW,212,4.7,6.9,66,0.00,SCT,,0.00,232.1,WeatherDisplay:10.37,2013-07-18 16:32:00,
2013-07-18 11:37:00,84.9,73.2,30.18,SSW,204,5.1,5.8,68,0.00,SCT,,0.00,173.8,WeatherDisplay:10.37,2013-07-18 16:37:00,
2013-07-18 11:42:00,84.8,73.1,30.18,SSW,204,0.0,0.0,68,0.00,SCT,,0.00,199.1,WeatherDisplay:10.37,2013-07-18 16:42:00,
2013-07-18 11:47:00,85.8,72.2,30.18,SSW,204,0.7,2.3,64,0.00,SCT,,0.00,999.9,WeatherDisplay:10.37,2013-07-18 16:47:00,
2013-07-18 11:52:00,86.9,73.3,30.18,SSW,199,1.6,3.5,64,0.00,SCT,,0.00,961.4,WeatherDisplay:10.37,2013-07-18 16:52:00,
2013-07-18 11:57:00,87.0,72.4,30.18,SSW,194,0.8,2.3,62,0.00,SCT,,0.00,1017.5,WeatherDisplay:10.37,2013-07-18 16:57:00,
2013-07-18 12:02:00,87.1,73.4,30.18,SSW,193,0.9,3.5,64,0.00,BKN,,0.00,1084.6,WeatherDisplay:10.37,2013-07-18 17:02:00,
2013-07-18 12:07:00,87.9,74.2,30.17,South,186,2.1,3.5,64,0.00,BKN,,0.00,1102.2,WeatherDisplay:10.37,2013-07-18 17:07:00,
2013-07-18 12:12:00,87.8,73.2,30.18,South,186,2.6,4.6,62,0.00,BKN,,0.00,1082.4,WeatherDisplay:10.37,2013-07-18 17:12:00,
2013-07-18 12:17:00,87.9,72.8,30.17,South,186,1.8,3.5,61,0.00,BKN,,0.00,1073.6,WeatherDisplay:10.37,2013-07-18 17:17:00,
2013-07-18 12:22:00,88.6,73.9,30.17,South,184,0.9,3.5,62,0.00,BKN,,0.00,1102.2,WeatherDisplay:10.37,2013-07-18 17:22:00,
2013-07-18 12:27:00,87.9,73.3,30.17,South,183,0.3,1.2,62,0.00,BKN,,0.00,1092.3,WeatherDisplay:10.37,2013-07-18 17:27:00,
2013-07-18 12:32:00,88.6,72.4,30.17,South,184,0.0,0.0,59,0.00,SCT,,0.00,1127.5,WeatherDisplay:10.37,2013-07-18 17:32:00,
2013-07-18 12:37:00,88.4,72.7,30.17,SSE,155,0.7,5.8,60,0.00,SCT,,0.00,1204.5,WeatherDisplay:10.37,2013-07-18 17:37:00,
2013-07-18 12:42:00,88.9,74.7,30.17,SSE,155,0.2,1.2,63,0.00,SCT,,0.00,1148.4,WeatherDisplay:10.37,2013-07-18 17:42:00,
2013-07-18 12:47:00,88.1,73.4,30.17,SSE,166,4.9,9.2,62,0.00,SCT,,0.00,259.6,WeatherDisplay:10.37,2013-07-18 17:47:00,
2013-07-18 12:52:00,87.9,72.8,30.17,South,179,1.4,6.9,61,0.00,SCT,,0.00,1145.1,WeatherDisplay:10.37,2013-07-18 17:52:00,
2013-07-18 12:57:00,88.1,73.4,30.17,South,179,1.1,2.3,62,0.00,SCT,,0.00,1125.3,WeatherDisplay:10.37,2013-07-18 17:57:00,
2013-07-18 13:02:00,88.6,73.4,30.16,South,176,1.0,2.3,61,0.00,SCT,,0.00,1056.0,WeatherDisplay:10.37,2013-07-18 18:02:00,
2013-07-18 13:07:00,89.3,74.6,30.16,South,176,1.8,4.6,62,0.00,SCT,,0.00,1090.1,WeatherDisplay:10.37,2013-07-18 18:07:00,
2013-07-18 13:12:00,90.0,75.2,30.16,South,176,1.8,4.6,62,0.00,SCT,,0.00,1145.1,WeatherDisplay:10.37,2013-07-18 18:12:00,
2013-07-18 13:17:00,89.7,74.0,30.16,South,178,1.4,2.3,60,0.00,SCT,,0.00,1150.6,WeatherDisplay:10.37,2013-07-18 18:17:00,
2013-07-18 13:22:00,90.1,73.8,30.16,SSE,164,1.7,4.6,59,0.00,SCT,,0.00,1063.7,WeatherDisplay:10.37,2013-07-18 18:22:00,
2013-07-18 13:27:00,88.8,73.1,30.16,SSE,164,0.4,1.2,60,0.00,SCT,,0.00,1036.2,WeatherDisplay:10.37,2013-07-18 18:27:00,
2013-07-18 13:32:00,89.1,73.4,30.15,SSE,160,3.8,5.8,60,0.00,SCT,,0.00,1102.2,WeatherDisplay:10.37,2013-07-18 18:32:00,
2013-07-18 13:37:00,89.4,71.6,30.16,SSE,154,1.1,3.5,56,0.00,SCT,,0.00,1125.3,WeatherDisplay:10.37,2013-07-18 18:37:00,
2013-07-18 13:42:00,89.4,72.7,30.15,SE,146,3.9,5.8,58,0.00,SCT,,0.00,1122.0,WeatherDisplay:10.37,2013-07-18 18:42:00,
2013-07-18 13:47:00,89.8,73.0,30.15,SSE,149,2.6,5.8,58,0.00,SCT,,0.00,1043.9,WeatherDisplay:10.37,2013-07-18 18:47:00,
2013-07-18 13:52:00,89.4,71.6,30.15,SSE,149,0.9,3.5,56,0.00,SCT,,0.00,1084.6,WeatherDisplay:10.37,2013-07-18 18:52:00,
2013-07-18 13:57:00,90.2,71.8,30.14,SE,143,4.0,6.9,55,0.00,SCT,,0.00,1048.3,WeatherDisplay:10.37,2013-07-18 18:57:00,
2013-07-18 14:02:00,89.8,72.5,30.14,SSE,149,4.7,8.1,57,0.00,SCT,,0.00,808.5,WeatherDisplay:10.37,2013-07-18 19:02:00,
2013-07-18 14:07:00,89.0,71.8,30.14,SSE,150,0.3,2.0,57,0.00,SCT,,0.00,970.2,WeatherDisplay:10.37,2013-07-18 19:07:00,
2013-07-18 14:12:00,89.5,71.7,30.13,SSE,150,2.2,4.6,56,0.00,SCT,,0.00,1049.4,WeatherDisplay:10.37,2013-07-18 19:12:00,
2013-07-18 14:17:00,90.1,75.3,30.13,SSE,150,2.8,4.6,62,0.00,SCT,,0.00,1051.6,WeatherDisplay:10.37,2013-07-18 19:17:00,
2013-07-18 14:22:00,89.8,72.0,30.13,SSE,150,1.5,4.6,56,0.00,SCT,,0.00,1032.9,WeatherDisplay:10.37,2013-07-18 19:22:00,
2013-07-18 14:27:00,90.0,72.7,30.13,SSE,150,0.4,2.3,57,0.00,SCT,,0.00,1013.1,WeatherDisplay:10.37,2013-07-18 19:27:00,
2013-07-18 14:32:00,89.5,70.7,30.12,SSE,150,0.3,3.5,54,0.00,CLR,,0.00,1023.0,WeatherDisplay:10.37,2013-07-18 19:32:00,
2013-07-18 14:37:00,89.9,74.2,30.12,SSE,153,2.8,6.9,60,0.00,CLR,,0.00,992.2,WeatherDisplay:10.37,2013-07-18 19:37:00,
2013-07-18 14:42:00,89.7,71.9,30.11,SSE,153,1.5,8.1,56,0.00,CLR,,0.00,970.2,WeatherDisplay:10.37,2013-07-18 19:42:00,
2013-07-18 14:47:00,90.0,71.1,30.11,SSE,153,0.2,1.2,54,0.00,CLR,,0.00,1013.1,WeatherDisplay:10.37,2013-07-18 19:47:00,
2013-07-18 14:52:00,90.7,71.8,30.11,SSE,153,0.0,1.2,54,0.00,CLR,,0.00,1023.0,WeatherDisplay:10.37,2013-07-18 19:52:00,
2013-07-18 14:57:00,90.2,71.8,30.10,SSE,153,1.8,6.0,55,0.00,CLR,,0.00,1005.4,WeatherDisplay:10.37,2013-07-18 19:57:00,
2013-07-18 15:02:00,90.3,73.0,30.10,SSE,153,4.5,6.9,57,0.00,SCT,,0.00,976.8,WeatherDisplay:10.37,2013-07-18 20:02:00,
2013-07-18 15:07:00,90.1,73.3,30.10,SSE,153,0.8,2.3,58,0.00,SCT,,0.00,980.1,WeatherDisplay:10.37,2013-07-18 20:07:00,
2013-07-18 15:12:00,90.5,71.0,30.10,SSE,154,0.3,2.3,53,0.00,SCT,,0.00,969.1,WeatherDisplay:10.37,2013-07-18 20:12:00,
2013-07-18 15:17:00,90.6,73.3,30.10,SSE,154,1.7,5.0,57,0.00,SCT,,0.00,992.2,WeatherDisplay:10.37,2013-07-18 20:17:00,
2013-07-18 15:22:00,90.4,73.1,30.09,SSE,154,1.1,3.5,57,0.00,SCT,,0.00,1034.0,WeatherDisplay:10.37,2013-07-18 20:22:00,
2013-07-18 15:27:00,90.7,71.8,30.09,SSE,154,0.0,0.0,54,0.00,SCT,,0.00,957.0,WeatherDisplay:10.37,2013-07-18 20:27:00,
2013-07-18 15:32:00,90.7,72.8,30.09,SSE,154,1.9,4.6,56,0.00,SCT,,0.00,939.4,WeatherDisplay:10.37,2013-07-18 20:32:00,
2013-07-18 15:37:00,91.1,74.3,30.08,SSE,154,1.9,4.6,58,0.00,SCT,,0.00,910.8,WeatherDisplay:10.37,2013-07-18 20:37:00,
2013-07-18 15:42:00,91.3,73.9,30.08,SSE,154,0.6,3.5,57,0.00,SCT,,0.00,918.5,WeatherDisplay:10.37,2013-07-18 20:42:00,
2013-07-18 15:47:00,90.8,70.7,30.08,SSE,154,0.3,2.3,52,0.00,CLR,,0.00,900.9,WeatherDisplay:10.37,2013-07-18 20:47:00,
2013-07-18 15:52:00,90.6,71.7,30.08,SSE,154,0.0,0.0,54,0.00,CLR,,0.00,906.4,WeatherDisplay:10.37,2013-07-18 20:52:00,
2013-07-18 15:57:00,90.1,70.7,30.07,SSE,151,3.8,4.6,53,0.00,CLR,,0.00,908.6,WeatherDisplay:10.37,2013-07-18 20:57:00,
2013-07-18 16:02:00,90.5,71.6,30.07,SSE,151,2.4,4.6,54,0.00,CLR,,0.00,910.8,WeatherDisplay:10.37,2013-07-18 21:02:00,
2013-07-18 16:07:00,89.3,72.1,30.07,SSE,149,0.3,1.2,57,0.00,CLR,,0.00,152.9,WeatherDisplay:10.37,2013-07-18 21:07:00,
2013-07-18 16:12:00,89.4,71.1,30.07,SSE,149,0.0,0.0,55,0.00,CLR,,0.00,178.2,WeatherDisplay:10.37,2013-07-18 21:12:00,
2013-07-18 16:17:00,89.6,71.8,30.07,SSE,149,0.9,3.5,56,0.00,SCT,,0.00,867.9,WeatherDisplay:10.37,2013-07-18 21:17:00,
2013-07-18 16:22:00,90.8,72.4,30.06,SSE,149,2.2,4.6,55,0.00,SCT,,0.00,844.8,WeatherDisplay:10.37,2013-07-18 21:22:00,
2013-07-18 16:27:00,91.4,73.0,30.06,SSE,149,1.2,3.5,55,0.00,SCT,,0.00,814.0,WeatherDisplay:10.37,2013-07-18 21:27:00,
2013-07-18 16:32:00,91.8,72.8,30.06,SSE,148,1.1,2.3,54,0.00,SCT,,0.00,839.3,WeatherDisplay:10.37,2013-07-18 21:32:00,
2013-07-18 16:37:00,91.3,71.8,30.06,SSE,148,0.5,2.3,53,0.00,SCT,,0.00,475.2,WeatherDisplay:10.37,2013-07-18 21:37:00,
2013-07-18 16:42:00,90.3,71.9,30.06,SSE,148,0.2,2.3,55,0.00,SCT,,0.00,402.6,WeatherDisplay:10.37,2013-07-18 21:42:00,
2013-07-18 16:47:00,90.0,73.7,30.05,SSE,148,1.2,3.5,59,0.00,SCT,,0.00,806.3,WeatherDisplay:10.37,2013-07-18 21:47:00,
2013-07-18 16:52:00,90.4,72.6,30.05,SSE,156,6.4,8.0,56,0.00,SCT,,0.00,106.7,WeatherDisplay:10.37,2013-07-18 21:52:00,
2013-07-18 16:57:00,89.4,71.6,30.05,SSE,156,0.3,2.3,56,0.00,SCT,,0.00,717.2,WeatherDisplay:10.37,2013-07-18 21:57:00,
2013-07-18 17:02:00,90.7,71.2,30.05,SSE,156,3.7,5.8,53,0.00,SCT,,0.00,694.1,WeatherDisplay:10.37,2013-07-18 22:02:00,
2013-07-18 17:07:00,90.7,70.7,30.05,SSE,158,2.4,3.5,52,0.00,SCT,,0.00,690.8,WeatherDisplay:10.37,2013-07-18 22:07:00,
2013-07-18 17:12:00,90.2,70.8,30.05,SSE,158,0.0,1.2,53,0.00,SCT,,0.00,102.3,WeatherDisplay:10.37,2013-07-18 22:12:00,
2013-07-18 17:17:00,88.8,71.6,30.05,SSE,158,0.0,0.0,57,0.00,SCT,,0.00,119.9,WeatherDisplay:10.37,2013-07-18 22:17:00,
2013-07-18 17:22:00,88.2,73.0,30.04,SSE,158,0.0,0.0,61,0.00,SCT,,0.00,106.7,WeatherDisplay:10.37,2013-07-18 22:22:00,
2013-07-18 17:27:00,87.4,74.2,30.04,SSE,158,0.0,0.0,65,0.00,SCT,,0.00,203.5,WeatherDisplay:10.37,2013-07-18 22:27:00,
2013-07-18 17:32:00,88.9,75.1,30.04,SSE,158,0.0,0.0,64,0.00,SCT,,0.00,635.8,WeatherDisplay:10.37,2013-07-18 22:32:00,
2013-07-18 17:37:00,90.3,70.8,30.04,SSE,158,0.0,0.0,53,0.00,SCT,,0.00,594.0,WeatherDisplay:10.37,2013-07-18 22:37:00,
2013-07-18 17:42:00,91.0,71.5,30.04,SSE,158,0.1,1.2,53,0.00,SCT,,0.00,564.3,WeatherDisplay:10.37,2013-07-18 22:42:00,
2013-07-18 17:47:00,91.1,71.6,30.03,SSE,158,0.7,2.3,53,0.00,BKN,,0.00,558.8,WeatherDisplay:10.37,2013-07-18 22:47:00,
2013-07-18 17:52:00,90.8,72.4,30.03,SSE,158,0.1,1.2,55,0.00,BKN,,0.00,533.5,WeatherDisplay:10.37,2013-07-18 22:52:00,
2013-07-18 17:57:00,91.2,71.7,30.03,SSE,158,0.0,0.0,53,0.00,BKN,,0.00,520.3,WeatherDisplay:10.37,2013-07-18 22:57:00,
2013-07-18 18:02:00,91.5,71.4,30.03,SSE,158,2.2,4.6,52,0.00,SCT,,0.00,510.4,WeatherDisplay:10.37,2013-07-18 23:02:00,
2013-07-18 18:07:00,91.5,71.4,30.02,SSE,158,4.7,5.8,52,0.00,SCT,,0.00,500.5,WeatherDisplay:10.37,2013-07-18 23:07:00,
2013-07-18 18:12:00,91.0,71.5,30.02,SSE,158,3.1,4.6,53,0.00,SCT,,0.00,75.9,WeatherDisplay:10.37,2013-07-18 23:12:00,
2013-07-18 18:17:00,89.9,71.0,30.02,South,181,3.7,4.6,54,0.00,SCT,,0.00,444.4,WeatherDisplay:10.37,2013-07-18 23:17:00,
2013-07-18 18:22:00,90.3,71.9,30.02,South,181,0.4,4.6,55,0.00,SCT,,0.00,426.8,WeatherDisplay:10.37,2013-07-18 23:22:00,
2013-07-18 18:27:00,90.4,72.0,30.02,South,181,2.5,3.5,55,0.00,SCT,,0.00,222.2,WeatherDisplay:10.37,2013-07-18 23:27:00,
2013-07-18 18:32:00,90.4,72.0,30.02,South,181,0.0,0.0,55,0.00,CLR,,0.00,239.8,WeatherDisplay:10.37,2013-07-18 23:32:00,
2013-07-18 18:37:00,90.1,70.1,30.02,South,181,0.9,2.3,52,0.00,CLR,,0.00,375.1,WeatherDisplay:10.37,2013-07-18 23:37:00,
2013-07-18 18:42:00,90.3,70.3,30.02,South,181,0.0,0.0,52,0.00,CLR,,0.00,361.9,WeatherDisplay:10.37,2013-07-18 23:42:00,
2013-07-18 18:47:00,90.5,72.1,30.01,South,181,0.0,0.0,55,0.00,CLR,,0.00,349.8,WeatherDisplay:10.37,2013-07-18 23:47:00,
2013-07-18 18:52:00,90.7,71.2,30.02,South,181,0.0,0.0,53,0.00,CLR,,0.00,332.2,WeatherDisplay:10.37,2013-07-18 23:52:00,
2013-07-18 18:57:00,90.6,71.1,30.02,South,181,0.0,0.0,53,0.00,CLR,,0.00,305.8,WeatherDisplay:10.37,2013-07-18 23:57:00,
2013-07-18 19:02:00,89.7,70.8,30.02,South,181,0.2,1.2,54,0.00,CLR,,0.00,291.5,WeatherDisplay:10.37,2013-07-19 00:02:00,
2013-07-18 19:07:00,88.8,72.6,30.02,South,181,1.0,3.5,59,0.00,CLR,,0.00,89.1,WeatherDisplay:10.37,2013-07-19 00:07:00,
2013-07-18 19:12:00,87.8,73.2,30.02,South,181,0.3,2.0,62,0.00,CLR,,0.00,94.6,WeatherDisplay:10.37,2013-07-19 00:12:00,
2013-07-18 19:17:00,87.4,73.7,30.02,South,181,0.0,0.0,64,0.00,CLR,,0.00,199.1,WeatherDisplay:10.37,2013-07-19 00:17:00,
2013-07-18 19:22:00,87.3,74.5,30.02,South,180,0.7,4.6,66,0.00,CLR,,0.00,191.4,WeatherDisplay:10.37,2013-07-19 00:22:00,
2013-07-18 19:27:00,86.8,74.1,30.03,South,174,2.6,5.8,66,0.00,CLR,,0.00,163.9,WeatherDisplay:10.37,2013-07-19 00:27:00,
2013-07-18 19:32:00,86.3,74.9,30.03,South,175,0.3,1.2,69,0.00,CLR,,0.00,114.4,WeatherDisplay:10.37,2013-07-19 00:32:00,
2013-07-18 19:37:00,85.7,74.8,30.03,South,175,0.0,0.0,70,0.00,CLR,,0.00,59.4,WeatherDisplay:10.37,2013-07-19 00:37:00,
2013-07-18 19:42:00,85.0,75.0,30.03,South,175,0.2,1.2,72,0.00,CLR,,0.00,48.4,WeatherDisplay:10.37,2013-07-19 00:42:00,
2013-07-18 19:47:00,84.5,74.5,30.03,South,175,2.5,5.8,72,0.00,CLR,,0.00,50.6,WeatherDisplay:10.37,2013-07-19 00:47:00,
2013-07-18 19:52:00,84.1,73.7,30.03,South,175,0.1,1.2,71,0.00,CLR,,0.00,44.0,WeatherDisplay:10.37,2013-07-19 00:52:00,
2013-07-18 19:57:00,83.7,73.3,30.03,South,175,0.0,0.0,71,0.00,CLR,,0.00,36.3,WeatherDisplay:10.37,2013-07-19 00:57:00,
2013-07-18 20:02:00,83.4,73.4,30.03,South,175,0.0,0.0,72,0.00,CLR,,0.00,28.6,WeatherDisplay:10.37,2013-07-19 01:02:00,
2013-07-18 20:07:00,82.9,73.8,30.03,South,175,0.0,0.0,74,0.00,CLR,,0.00,25.3,WeatherDisplay:10.37,2013-07-19 01:07:00,
2013-07-18 20:12:00,82.6,73.1,30.03,South,175,0.0,0.0,73,0.00,CLR,,0.00,20.9,WeatherDisplay:10.37,2013-07-19 01:12:00,
2013-07-18 20:17:00,82.2,73.9,30.03,South,175,0.0,0.0,76,0.00,CLR,,0.00,17.6,WeatherDisplay:10.37,2013-07-19 01:17:00,
2013-07-18 20:22:00,81.6,73.7,30.03,South,175,0.0,0.0,77,0.00,CLR,,0.00,15.4,WeatherDisplay:10.37,2013-07-19 01:22:00,
2013-07-18 20:27:00,81.4,73.1,30.03,South,175,0.0,0.0,76,0.00,CLR,,0.00,12.1,WeatherDisplay:10.37,2013-07-19 01:27:00,
2013-07-18 20:32:00,81.5,72.4,30.03,South,175,0.0,0.0,74,0.00,CLR,,0.00,7.7,WeatherDisplay:10.37,2013-07-19 01:32:00,
2013-07-18 20:37:00,81.3,72.6,30.03,South,175,2.7,4.6,75,0.00,CLR,,0.00,5.5,WeatherDisplay:10.37,2013-07-19 01:37:00,
2013-07-18 20:42:00,81.2,72.1,30.03,South,175,1.2,2.3,74,0.00,CLR,,0.00,0.0,WeatherDisplay:10.37,2013-07-19 01:42:00,
2013-07-18 20:47:00,80.7,72.0,30.03,South,175,0.0,0.0,75,0.00,CLR,,0.00,0.0,WeatherDisplay:10.37,2013-07-19 01:47:00,
2013-07-18 20:52:00,80.3,71.6,30.03,South,175,0.0,0.0,75,0.00,CLR,,0.00,0.0,WeatherDisplay:10.37,2013-07-19 01:52:00,
2013-07-18 20:57:00,80.0,71.4,30.03,South,175,0.0,0.0,75,0.00,CLR,,0.00,0.0,WeatherDisplay:10.37,2013-07-19 01:57:00,
2013-07-18 21:02:00,79.5,71.3,30.03,South,175,2.8,4.0,76,0.00,CLR,,0.00,0.0,WeatherDisplay:10.37,2013-07-19 02:02:00,
2013-07-18 21:07:00,79.7,71.5,30.03,South,175,2.6,4.0,76,0.00,CLR,,0.00,0.0,WeatherDisplay:10.37,2013-07-19 02:07:00,
2013-07-18 21:12:00,79.5,71.7,30.04,South,175,0.0,0.0,77,0.00,CLR,,0.00,0.0,WeatherDisplay:10.37,2013-07-19 02:12:00,
2013-07-18 21:17:00,79.0,72.3,30.04,South,175,0.0,0.0,80,0.00,CLR,,0.00,0.0,WeatherDisplay:10.37,2013-07-19 02:17:00,
2013-07-18 21:22:00,78.9,72.9,30.04,South,175,0.0,0.0,82,0.00,CLR,,0.00,0.0,WeatherDisplay:10.37,2013-07-19 02:22:00,
2013-07-18 21:27:00,78.4,72.8,30.04,South,175,2.3,4.0,83,0.00,CLR,,0.00,0.0,WeatherDisplay:10.37,2013-07-19 02:27:00,
2013-07-18 21:32:00,77.9,72.3,30.04,South,175,0.1,1.2,83,0.00,CLR,,0.00,0.0,WeatherDisplay:10.37,2013-07-19 02:32:00,
2013-07-18 21:37:00,77.7,72.1,30.04,South,175,0.0,0.0,83,0.00,CLR,,0.00,0.0,WeatherDisplay:10.37,2013-07-19 02:37:00,
2013-07-18 21:42:00,77.5,71.6,30.05,South,175,0.0,0.0,82,0.00,CLR,,0.00,0.0,WeatherDisplay:10.37,2013-07-19 02:42:00,
2013-07-18 21:47:00,77.3,72.4,30.05,South,175,0.0,0.0,85,0.00,CLR,,0.00,0.0,WeatherDisplay:10.37,2013-07-19 02:47:00,
2013-07-18 21:52:00,76.9,72.4,30.05,South,175,0.0,0.0,86,0.00,CLR,,0.00,0.0,WeatherDisplay:10.37,2013-07-19 02:52:00,
2013-07-18 21:57:00,76.7,72.2,30.05,South,175,0.0,0.0,86,0.00,CLR,,0.00,0.0,WeatherDisplay:10.37,2013-07-19 02:57:00,
2013-07-18 22:02:00,76.6,72.1,30.05,South,175,0.0,0.0,86,0.00,CLR,,0.00,0.0,WeatherDisplay:10.37,2013-07-19 03:02:00,
2013-07-18 22:07:00,76.5,72.3,30.05,South,175,0.0,0.0,87,0.00,CLR,,0.00,0.0,WeatherDisplay:10.37,2013-07-19 03:07:00,
2013-07-18 22:12:00,76.4,72.6,30.05,South,175,0.0,0.0,88,0.00,CLR,,0.00,0.0,WeatherDisplay:10.37,2013-07-19 03:12:00,
2013-07-18 22:17:00,76.2,72.4,30.05,South,175,0.0,0.0,88,0.00,CLR,,0.00,0.0,WeatherDisplay:10.37,2013-07-19 03:17:00,
2013-07-18 22:22:00,76.1,72.3,30.06,South,175,0.0,0.0,88,0.00,CLR,,0.00,0.0,WeatherDisplay:10.37,2013-07-19 03:22:00,
2013-07-18 22:27:00,76.0,72.2,30.06,South,175,0.0,0.0,88,0.00,CLR,,0.00,0.0,WeatherDisplay:10.37,2013-07-19 03:27:00,
2013-07-18 22:32:00,76.0,72.2,30.06,South,175,0.0,0.0,88,0.00,CLR,,0.00,0.0,WeatherDisplay:10.37,2013-07-19 03:32:00,
2013-07-18 22:37:00,76.0,72.5,30.06,South,175,0.0,0.0,89,0.00,CLR,,0.00,0.0,WeatherDisplay:10.37,2013-07-19 03:37:00,
2013-07-18 22:42:00,75.8,72.7,30.06,South,175,0.0,0.0,90,0.00,CLR,,0.00,0.0,WeatherDisplay:10.37,2013-07-19 03:42:00,
2013-07-18 22:47:00,75.7,72.6,30.06,South,175,0.0,0.0,90,0.00,CLR,,0.00,0.0,WeatherDisplay:10.37,2013-07-19 03:47:00,
2013-07-18 22:52:00,75.5,72.4,30.06,South,175,0.0,0.0,90,0.00,CLR,,0.00,0.0,WeatherDisplay:10.37,2013-07-19 03:52:00,
2013-07-18 22:57:00,75.5,72.0,30.06,South,175,0.0,0.0,89,0.00,CLR,,0.00,0.0,WeatherDisplay:10.37,2013-07-19 03:57:00,
2013-07-18 23:01:00,75.5,72.0,30.06,South,175,0.0,0.0,89,0.00,CLR,,0.00,0.0,WeatherDisplay:10.37,2013-07-19 04:01:00,
2013-07-18 23:06:00,75.4,72.3,30.06,South,175,0.0,0.0,90,0.00,CLR,,0.00,0.0,WeatherDisplay:10.37,2013-07-19 04:06:00,
2013-07-18 23:11:00,75.2,72.1,30.06,South,175,0.0,0.0,90,0.00,CLR,,0.00,0.0,WeatherDisplay:10.37,2013-07-19 04:11:00,
2013-07-18 23:16:00,75.1,72.0,30.06,South,175,0.0,0.0,90,0.00,CLR,,0.00,0.0,WeatherDisplay:10.37,2013-07-19 04:16:00,
2013-07-18 23:21:00,75.1,72.0,30.06,South,175,0.0,0.0,90,0.00,CLR,,0.00,0.0,WeatherDisplay:10.37,2013-07-19 04:21:00,
2013-07-18 23:26:00,75.1,72.0,30.06,South,175,0.0,0.0,90,0.00,CLR,,0.00,0.0,WeatherDisplay:10.37,2013-07-19 04:26:00,
2013-07-18 23:31:00,75.0,71.9,30.06,South,175,0.0,0.0,90,0.00,CLR,,0.00,0.0,WeatherDisplay:10.37,2013-07-19 04:31:00,
2013-07-18 23:36:00,74.8,71.7,30.06,South,175,0.0,0.0,90,0.00,CLR,,0.00,0.0,WeatherDisplay:10.37,2013-07-19 04:36:00,
2013-07-18 23:41:00,74.9,71.8,30.06,South,175,4.4,4.6,90,0.00,CLR,,0.00,0.0,WeatherDisplay:10.37,2013-07-19 04:41:00,
2013-07-18 23:46:00,74.9,71.8,30.06,South,175,0.0,0.0,90,0.00,CLR,,0.00,0.0,WeatherDisplay:10.37,2013-07-19 04:46:00,
2013-07-18 23:51:00,74.8,71.7,30.06,South,175,1.6,3.5,90,0.00,CLR,,0.00,0.0,WeatherDisplay:10.37,2013-07-19 04:51:00,
2013-07-18 23:56:00,74.9,71.8,30.06,South,175,0.0,0.0,90,0.00,CLR,,0.00,0.0,WeatherDisplay:10.37,2013-07-19 04:56:00,